Location: Baumgartsau
(48.4586°N, 14.0864°E)
Time: 18:17:31
(UTC+00:00)

STARLINK-1240 - Pass Details

Date: 09 April 2020
Orbit: 549 x 551 km, 53.0° (Epoch: 26 May)

Event Time Altitude Azimuth Distance (km) Brightness Sun altitude
Rises 20:10:27 0° 295° (WNW) 2,731 8.5 -21.8°
Reaches altitude 10° 20:12:44 10° 290° (WNW) 1,834 7.2 -22.1°
Enters shadow 20:16:41 48° 219° (SW) 723 4.1 -22.5°
